Simultaneous Nadir Overpasses (SNOs) Predictions

Prediction of SNOs between AQUA and GOES-15 Satellite Orbit:

Table of predicted SNOs for the next 14.0 days since TLE Epoch: 1/8/2018
Index Date Time (AQUA) AQUA Lat,Lon GOES-15 Lat,Lon Distance(km) Time Diff (sec)
1 01/10/2018 10:25:59 -0.52,-132.63 -0.05,-134.90 257.80 80
2 01/10/2018 22:47:22 -0.61,-137.81 0.06,-134.83 339.63 80
3 01/12/2018 22:35:11 0.01,-134.85 0.05,-134.75 11.81 80
4 01/14/2018 22:23:00 0.63,-131.89 0.04,-134.67 315.78 80
5 01/15/2018 10:44:16 0.45,-137.05 -0.04,-134.69 268.20 80
6 01/17/2018 10:32:05 -0.18,-134.09 -0.04,-134.60 58.60 80
7 01/19/2018 10:19:53 -0.75,-131.12 -0.04,-134.51 384.71 80
8 01/19/2018 22:41:17 -0.38,-136.31 0.04,-134.44 212.92 80
9 01/21/2018 22:29:06 0.26,-133.35 0.04,-134.34 112.59 80
10 01/22/2018 10:50:22 0.81,-138.51 -0.04,-134.35 472.33 80




NCC Satellite Simultaneous Nadir Overpasses (SNOs) Prediction Service
